Flag for U.S.A. Weather past 2 weeks in Lafayette, Louisiana, U.S.A.

Now
35 °F

Clear.


Feels Like: 32 °F
Forecast: 36 / 58 °F
Wind: 3 mph from South

Location: Lafayette Regional Airport

Current Time: Dec 25, 2014 at 5:30:49 AM

Latest Report: Dec 25, 2014 at 4:53 AM


Visibility: 10 mi

Pressure: 30.18 "Hg

Humidity: 92%

Dew point: 33 °F

Location of LafayetteLocation

Historic Weather in Lafayette — Graph

°F

Lafayette temperature yesterday

Maximum temperature yesterday: 51 °F (at 11:53 AM)
Minimum temperature yesterday: 39 °F (at 10:53 PM)
Average temperature yesterday: 47 °F

Past Weeks' High & Low Weather Summary

 TemperatureHumidityPressure
High77 °F (Dec 15, 1:53 PM)100% (Dec 19, 3:53 AM)30.37 "Hg (Dec 19, 3:53 AM)
Low38 °F (Dec 25, 1:53 AM)35% (Dec 13, 3:53 PM)29.51 "Hg (Dec 23, 2:01 PM)
Average56 °F77%30.08 "Hg
* Reported Dec 10 3:53 AM — Dec 25 3:53 AM, Lafayette, Weather by CustomWeather, © 2014

Note: Actual official high and low records may vary slightly from our data, if they occured in-between our weather recording intervals... More about our weather records

Advertising

Lafayette weather history for previous 24 hours

 ConditionsComfort  
Time TempWeatherWind HumidityBarometerVisibility
3:53 AM
Dec 25
38 °FClear.No wind90%30.17 "Hg10 mi
2:53 AM38 °FClear.No wind93%30.16 "Hg10 mi
1:53 AM38 °FClear.5 mph90%30.15 "Hg10 mi
12:53 AM40 °FClear.5 mph89%30.14 "Hg10 mi
11:53 PM
Dec 24
39 °FClear.No wind89%30.14 "Hg10 mi
10:53 PM39 °FClear.No wind86%30.14 "Hg10 mi
9:53 PM42 °FClear.5 mph79%30.14 "Hg10 mi
8:53 PM43 °FClear.6 mph76%30.12 "Hg10 mi
7:53 PM45 °FClear.7 mph71%30.10 "Hg10 mi
6:53 PM47 °FOvercast.8 mph66%30.08 "Hg10 mi
5:53 PM48 °FPassing clouds.7 mph61%30.05 "Hg10 mi
4:53 PM49 °FOvercast.10 mph55%30.03 "Hg10 mi
3:53 PM50 °FOvercast.9 mph57%30.01 "Hg10 mi
2:53 PM50 °FOvercast.12 mph54%29.99 "Hg10 mi
1:53 PM51 °FOvercast.14 mph50%29.97 "Hg10 mi
12:53 PM50 °FOvercast.14 mph52%29.97 "Hg10 mi
11:53 AM51 °FScattered clouds.17 mph52%29.98 "Hg10 mi
10:53 AM50 °FPassing clouds.15 mph54%30.00 "Hg10 mi
9:53 AM48 °FSunny.18 mph63%30.00 "Hg10 mi
8:53 AM47 °FSunny.14 mph71%29.96 "Hg10 mi
7:53 AM45 °FSunny.12 mph82%29.93 "Hg10 mi
6:53 AM45 °FClear.8 mph82%29.91 "Hg10 mi
5:53 AM45 °FClear.8 mph86%29.87 "Hg10 mi
Weather by CustomWeather, © 2014

See weather overviewHow to use our weather pages